BVX253 YBCS-YBSU

Flight info

Callsign BVX253
Flight time N/A
Altitude 29000
Route AKROM Y177 RUROX/N0403F190 W727 SUSGI W534 SEBVA
Aircraft RJ1H/M-SDFGIRWY/LB1

Departure

Time 2026-04-27 08:17
Airport Cairns International Airport (YBCS)

Arrival

Time N/A
Airport Sunshine Coast Airport (YBSU)
Time Latitude Longitude Altitude Speed Heading
2026-04-27 06:24 -16.87341 145.75221 -23 ft 0 kts 158°
2026-04-27 08:04 -16.87332 145.75218 -1 ft 4 kts 155°
2026-04-27 08:04 -16.87308 145.75208 1 ft 4 kts 165°
2026-04-27 08:04 -16.87281 145.75203 0 ft 4 kts 175°
2026-04-27 08:04 -16.87270 145.75202 0 ft 1 kts 175°
2026-04-27 08:05 -16.87269 145.75202 0 ft 0 kts 175°
2026-04-27 08:07 -16.87270 145.75202 0 ft 1 kts 175°
2026-04-27 08:07 -16.87283 145.75193 -1 ft 2 kts 262°
2026-04-27 08:07 -16.87283 145.75182 -1 ft 2 kts 269°
2026-04-27 08:08 -16.87282 145.75169 -2 ft 2 kts 276°
2026-04-27 08:08 -16.87280 145.75138 -2 ft 7 kts 267°
2026-04-27 08:08 -16.87290 145.75101 -2 ft 4 kts 246°
2026-04-27 08:08 -16.87309 145.75053 -1 ft 12 kts 249°
2026-04-27 08:09 -16.87320 145.74972 -3 ft 11 kts 281°
2026-04-27 08:09 -16.87292 145.74898 -5 ft 11 kts 300°
2026-04-27 08:09 -16.87243 145.74868 -5 ft 6 kts 25°
2026-04-27 08:09 -16.87238 145.74884 -5 ft 1 kts 98°
2026-04-27 08:10 -16.87246 145.74895 -5 ft 10 kts 139°
2026-04-27 08:10 -16.87265 145.74886 -5 ft 3 kts 298°
2026-04-27 08:10 -16.87251 145.74869 -6 ft 3 kts 315°
2026-04-27 08:10 -16.87236 145.74853 -5 ft 3 kts 321°
2026-04-27 08:11 -16.87211 145.74839 -6 ft 6 kts 338°
2026-04-27 08:11 -16.87138 145.74806 -7 ft 16 kts 336°
2026-04-27 08:11 -16.87076 145.74775 -8 ft 7 kts 326°
2026-04-27 08:11 -16.87055 145.74740 -9 ft 4 kts 250°
2026-04-27 08:12 -16.87057 145.74722 -10 ft 0 kts 262°
2026-04-27 08:12 -16.87057 145.74721 -10 ft 0 kts 262°
2026-04-27 08:12 -16.87057 145.74716 -10 ft 1 kts 270°
2026-04-27 08:13 -16.87057 145.74705 -8 ft 2 kts 270°
2026-04-27 08:13 -16.87058 145.74701 -8 ft 1 kts 266°
2026-04-27 08:13 -16.87058 145.74694 -8 ft 1 kts 266°
2026-04-27 08:13 -16.87059 145.74685 -11 ft 0 kts 252°
2026-04-27 08:15 -16.87068 145.74662 -10 ft 7 kts 244°
2026-04-27 08:15 -16.87087 145.74617 -10 ft 6 kts 246°
2026-04-27 08:16 -16.87133 145.74609 -10 ft 17 kts 163°
2026-04-27 08:16 -16.87459 145.74753 -3 ft 83 kts 157°
2026-04-27 08:16 -16.88171 145.75074 13 ft 138 kts 158°
2026-04-27 08:16 -16.89096 145.75502 516 ft 140 kts 156°
2026-04-27 08:17 -16.89873 145.75906 1448 ft 115 kts 152°
2026-04-27 08:17 -16.90414 145.76422 1635 ft 143 kts 129°